When you browse on this site, cookies collect data to enhance your experience and personalize the content and advertising you see.
Visit our Privacy Policy to learn more. By continuing to use the site, you agree to this use of cookies and data.
  • In United Kingdom
  • List of Countries
  • For 7 days
  • Water Temperature
  • Satellite Maps
  • Weather Map
  • Weather Widgets
  • user-avatar
    Login

    Hourly Weather Mauritius

    Today, 21 November, Wednesday

    Time Temperature Precipitation Wind Pressure Humidity
    00:00 +23°C° 0 mm 7 mps 726 mmHg 80%
    01:00 +23°C° 0 mm 7 mps 726 mmHg 80%
    02:00 +23°C° 0 mm 7 mps 726 mmHg 80%
    03:00 +23°C° 0 mm 7 mps 725 mmHg 80%
    04:00 +23°C° 0 mm 7 mps 725 mmHg 80%
    05:00 +23°C° 0.2 mm 7 mps 725 mmHg 79%
    06:00 +23°C° 0.2 mm 7 mps 725 mmHg 78%
    07:00 +23°C° 0.2 mm 7 mps 725 mmHg 77%
    08:00 +24°C° 0.3 mm 7 mps 726 mmHg 75%
    09:00 +24°C° 0.3 mm 6 mps 726 mmHg 73%
    10:00 +26°C° 0.3 mm 6 mps 726 mmHg 71%
    11:00 +26°C° 0.4 mm 6 mps 726 mmHg 71%
    12:00 +26°C° 0.4 mm 6 mps 725 mmHg 72%
    13:00 +26°C° 0.4 mm 6 mps 725 mmHg 72%
    14:00 +26°C° 0.4 mm 6 mps 725 mmHg 73%
    15:00 +24°C° 0.4 mm 6 mps 725 mmHg 74%
    16:00 +24°C° 0.4 mm 6 mps 724 mmHg 75%
    17:00 +24°C° 0.2 mm 6 mps 724 mmHg 77%
    18:00 +24°C° 0.2 mm 6 mps 725 mmHg 79%
    19:00 +23°C° 0.2 mm 7 mps 725 mmHg 81%
    20:00 +23°C° 0.2 mm 7 mps 725 mmHg 81%
    21:00 +23°C° 0.2 mm 7 mps 725 mmHg 82%
    22:00 +23°C° 0.2 mm 7 mps 725 mmHg 82%
    23:00 +23°C° 0.3 mm 7 mps 725 mmHg 82%

    Tomorrow, 22 November, Thursday

    Time Temperature Precipitation Wind Pressure Humidity
    00:00 +23°C° 0.3 mm 7 mps 725 mmHg 82%
    01:00 +22°C° 0.3 mm 6 mps 725 mmHg 82%
    02:00 +23°C° 0.4 mm 6 mps 724 mmHg 82%
    03:00 +23°C° 0.4 mm 6 mps 724 mmHg 82%
    04:00 +23°C° 0.4 mm 7 mps 724 mmHg 81%
    05:00 +23°C° 0.3 mm 7 mps 724 mmHg 80%
    06:00 +23°C° 0.3 mm 7 mps 724 mmHg 78%
    07:00 +23°C° 0.3 mm 7 mps 725 mmHg 77%
    08:00 +24°C° 0.1 mm 7 mps 725 mmHg 75%
    09:00 +24°C° 0.1 mm 7 mps 725 mmHg 72%
    10:00 +26°C° 0.1 mm 7 mps 725 mmHg 70%
    11:00 +26°C° 0 mm 7 mps 725 mmHg 71%
    12:00 +24°C° 0 mm 7 mps 725 mmHg 71%
    13:00 +24°C° 0 mm 7 mps 724 mmHg 72%
    14:00 +24°C° 0 mm 7 mps 724 mmHg 72%
    15:00 +24°C° 0 mm 7 mps 724 mmHg 72%
    16:00 +24°C° 0 mm 6 mps 724 mmHg 72%
    17:00 +24°C° 0 mm 6 mps 724 mmHg 73%
    18:00 +24°C° 0 mm 7 mps 724 mmHg 75%
    19:00 +23°C° 0 mm 7 mps 724 mmHg 76%
    20:00 +23°C° 0 mm 7 mps 725 mmHg 76%
    21:00 +23°C° 0 mm 7 mps 725 mmHg 77%
    22:00 +23°C° 0 mm 7 mps 725 mmHg 77%
    23:00 +23°C° 0 mm 6 mps 725 mmHg 78%

    Day after tomorrow, 23 November, Friday

    Time Temperature Precipitation Wind Pressure Humidity
    00:00 +23°C° 0 mm 6 mps 725 mmHg 78%
    01:00 +23°C° 0 mm 6 mps 725 mmHg 79%
    02:00 +23°C° 0 mm 6 mps 724 mmHg 79%
    03:00 +23°C° 0 mm 6 mps 724 mmHg 79%
    04:00 +22°C° 0 mm 6 mps 724 mmHg 80%
    05:00 +23°C° 0 mm 6 mps 724 mmHg 78%
    06:00 +23°C° 0 mm 6 mps 724 mmHg 77%
    07:00 +23°C° 0 mm 6 mps 725 mmHg 76%
    08:00 +24°C° 0 mm 6 mps 725 mmHg 74%
    09:00 +24°C° 0 mm 6 mps 725 mmHg 71%
    10:00 +26°C° 0 mm 5 mps 725 mmHg 69%
    11:00 +26°C° 0 mm 5 mps 725 mmHg 68%
    12:00 +27°C° 0 mm 5 mps 725 mmHg 68%
    13:00 +27°C° 0 mm 5 mps 725 mmHg 67%
    14:00 +27°C° 0 mm 5 mps 725 mmHg 68%
    15:00 +26°C° 0 mm 5 mps 724 mmHg 69%
    16:00 +26°C° 0 mm 5 mps 724 mmHg 69%
    17:00 +26°C° 0 mm 5 mps 724 mmHg 71%
    18:00 +25°C° 0 mm 5 mps 725 mmHg 74%
    19:00 +25°C° 0 mm 5 mps 725 mmHg 76%
    20:00 +23°C° 0 mm 4 mps 725 mmHg 77%
    21:00 +23°C° 0 mm 4 mps 726 mmHg 78%
    22:00 +23°C° 0 mm 4 mps 726 mmHg 80%
    23:00 +23°C° 0 mm 4 mps 725 mmHg 80%

    24 November, Saturday

    Time Temperature Precipitation Wind Pressure Humidity
    00:00 +23°C° 0 mm 4 mps 725 mmHg 80%
    01:00 +23°C° 0 mm 4 mps 725 mmHg 81%
    02:00 +23°C° 0 mm 4 mps 724 mmHg 81%
    03:00 +22°C° 0 mm 4 mps 724 mmHg 81%
    04:00 +22°C° 0 mm 4 mps 724 mmHg 82%
    05:00 +23°C° 0 mm 4 mps 724 mmHg 81%
    06:00 +23°C° 0 mm 4 mps 725 mmHg 80%
    07:00 +23°C° 0 mm 4 mps 725 mmHg 79%
    08:00 +25°C° 0 mm 4 mps 725 mmHg 76%
    09:00 +25°C° 0 mm 4 mps 726 mmHg 73%
    10:00 +26°C° 0 mm 4 mps 726 mmHg 70%
    11:00 +26°C° 0 mm 4 mps 726 mmHg 69%
    12:00 +27°C° 0 mm 4 mps 725 mmHg 69%
    13:00 +27°C° 0 mm 4 mps 725 mmHg 68%
    14:00 +27°C° 0 mm 4 mps 725 mmHg 69%
    15:00 +26°C° 0 mm 4 mps 724 mmHg 70%
    16:00 +26°C° 0 mm 4 mps 724 mmHg 70%
    17:00 +26°C° 0 mm 5 mps 725 mmHg 73%
    18:00 +25°C° 0 mm 5 mps 725 mmHg 77%
    19:00 +25°C° 0 mm 5 mps 725 mmHg 80%
    20:00 +25°C° 0 mm 5 mps 726 mmHg 80%
    21:00 +23°C° 0 mm 5 mps 726 mmHg 81%
    22:00 +23°C° 0 mm 5 mps 726 mmHg 81%
    23:00 +23°C° 0 mm 5 mps 726 mmHg 81%

    25 November, Sunday

    Time Temperature Precipitation Wind Pressure Humidity
    00:00 +23°C° 0 mm 5 mps 726 mmHg 81%
    01:00 +23°C° 0 mm 5 mps 725 mmHg 81%
    02:00 +23°C° 0 mm 5 mps 725 mmHg 82%
    03:00 +23°C° 0 mm 5 mps 725 mmHg 83%
    04:00 +23°C° 0 mm 5 mps 724 mmHg 83%
    05:00 +23°C° 0 mm 5 mps 725 mmHg 83%
    06:00 +23°C° 0 mm 5 mps 725 mmHg 83%
    07:00 +23°C° 0 mm 5 mps 725 mmHg 83%
    08:00 +25°C° 0 mm 5 mps 725 mmHg 80%
    09:00 +25°C° 0 mm 5 mps 726 mmHg 77%
    10:00 +26°C° 0 mm 4 mps 726 mmHg 74%
    11:00 +26°C° 0 mm 4 mps 725 mmHg 73%
    12:00 +26°C° 0 mm 4 mps 725 mmHg 72%
    13:00 +27°C° 0 mm 4 mps 724 mmHg 71%
    14:00 +26°C° 0 mm 4 mps 724 mmHg 72%
    15:00 +26°C° 0 mm 4 mps 724 mmHg 73%
    16:00 +26°C° 0 mm 4 mps 724 mmHg 75%
    17:00 +26°C° 0 mm 4 mps 724 mmHg 77%
    18:00 +25°C° 0 mm 4 mps 724 mmHg 79%
    19:00 +25°C° 0 mm 4 mps 724 mmHg 81%
    20:00 +25°C° 0 mm 4 mps 725 mmHg 81%
    21:00 +25°C° 0 mm 4 mps 725 mmHg 81%
    22:00 +25°C° 0 mm 3 mps 725 mmHg 81%
    23:00 +24°C° 0 mm 3 mps 725 mmHg 81%

    26 November, Monday

    Time Temperature Precipitation Wind Pressure Humidity
    00:00 +24°C° 0 mm 3 mps 724 mmHg 82%
    01:00 +24°C° 0 mm 3 mps 724 mmHg 82%
    02:00 +24°C° 0 mm 3 mps 724 mmHg 82%
    03:00 +24°C° 0 mm 3 mps 723 mmHg 83%
    04:00 +24°C° 0 mm 3 mps 723 mmHg 83%
    05:00 +24°C° 0 mm 2 mps 724 mmHg 81%
    06:00 +24°C° 0 mm 2 mps 724 mmHg 80%
    07:00 +24°C° 0 mm 2 mps 724 mmHg 78%
    08:00 +25°C° 0 mm 2 mps 724 mmHg 74%
    09:00 +26°C° 0 mm 3 mps 724 mmHg 70%
    10:00 +27°C° 0 mm 3 mps 724 mmHg 66%
    11:00 +27°C° 0 mm 3 mps 724 mmHg 66%
    12:00 +27°C° 0 mm 3 mps 724 mmHg 66%
    13:00 +27°C° 0 mm 3 mps 723 mmHg 67%
    14:00 +27°C° 0 mm 3 mps 723 mmHg 68%
    15:00 +27°C° 0 mm 3 mps 723 mmHg 69%
    16:00 +27°C° 0 mm 3 mps 723 mmHg 70%
    17:00 +27°C° 0 mm 3 mps 723 mmHg 73%
    18:00 +26°C° 0 mm 3 mps 723 mmHg 75%
    19:00 +26°C° 0 mm 3 mps 724 mmHg 78%
    20:00 +25°C° 0.2 mm 3 mps 724 mmHg 79%
    21:00 +25°C° 0.2 mm 3 mps 724 mmHg 81%
    22:00 +25°C° 0.2 mm 3 mps 724 mmHg 82%
    23:00 +25°C° 0.1 mm 3 mps 724 mmHg 83%
    Show more